Location: Columbia
(38.9520°N, 92.3340°W)
Time: 15:59:37
(UTC-05:00)

SL-08 RB Rocket - Visible Passes

Search period start: 28 June 2017 00:00
Search period end: 08 July 2017 00:00
Orbit: 649 x 684 km, 98.0° (Epoch: 27 June)

Date Brightness Start Highest point End Pass type
(mag) Time Alt. Az. Time Alt. Az. Time Alt. Az.
28 Jun 3.6 22:25:51 27° SSE 22:28:19 86° E 22:32:58 10° NNW visible
29 Jun 5.4 21:20:12 10° ESE 21:23:19 18° ENE 21:26:27 10° NNE visible
29 Jun 4.6 22:57:50 25° SSW 23:00:00 42° W 23:04:24 10° NNW visible
30 Jun 4.5 21:51:42 17° SE 21:54:41 37° ENE 21:58:56 10° N visible
30 Jun 5.8 23:29:50 15° SW 23:31:49 20° W 23:35:11 10° NW visible
01 Jul 3.7 22:23:41 27° SSE 22:26:11 82° ENE 22:30:50 10° N visible
02 Jul 5.5 21:18:10 10° ESE 21:21:12 18° ENE 21:24:15 10° NNE visible
02 Jul 4.5 22:55:41 26° SSW 22:57:51 45° W 23:02:17 10° NNW visible
03 Jul 4.6 21:49:32 17° SE 21:52:32 36° ENE 21:56:46 10° N visible
03 Jul 5.7 23:27:40 16° SW 23:29:39 21° W 23:33:08 10° NW visible
04 Jul 3.7 22:21:33 27° SSE 22:24:03 78° ENE 22:28:42 10° N visible
05 Jul 5.5 21:16:08 10° ESE 21:19:05 17° ENE 21:22:02 10° NNE visible
05 Jul 4.5 22:53:32 27° SSW 22:55:42 47° W 23:00:12 10° NNW visible
06 Jul 4.6 21:47:24 16° SE 21:50:25 34° ENE 21:54:37 10° N visible
06 Jul 5.7 23:25:32 17° SW 23:27:30 22° W 23:31:06 10° NW visible
07 Jul 3.7 22:19:24 27° SSE 22:21:55 74° ENE 22:26:34 10° N visible
